Regional Weather Roundup
Issued by NWS

Home | Current Version | Previous Version | Text Only | Print | Product List | Glossary Off
Versions: 1 2 3 4 5 6 7 8 9 10 11 12 13 14 15 16 17 18 19 20 21 22 23 24 25 26 27 28 29 30 31 32 33 34 35 36 37 38 39 40 41 42 43 44 45 46 47 48 49 50

000
ASUS43 KFSD 281410
RWRSD

WEATHER ROUNDUP FOR SOUTH DAKOTA
NATIONAL WEATHER SERVICE SIOUX FALLS SD
900 AM CDT THU MAY 28 2015

NOTE: "FAIR" INDICATES FEW OR NO CLOUDS BELOW 12,000 FEET WITH NO
SIGNIFICANT WEATHER AND/OR OBSTRUCTIONS TO VISIBILITY.


SDZ001>005-009-010-012>017-281500-
NORTHWEST AND NORTH CENTRAL SOUTH DAKOTA

CITY           SKY/WX    TMP DP  RH WIND       PRES   REMARKS
BUFFALO          N/A     62  57  83 W10       29.87R
FAITH            N/A     59  55  87 N9        29.90R
MOBRIDGE       MOSUNNY   63  59  87 S8        29.87F
$$

SDZ012>016-024>037-041>051-057-063-072>074-281500-
SOUTHWEST AND SOUTH CENTRAL SOUTH DAKOTA

CITY           SKY/WX    TMP DP  RH WIND       PRES   REMARKS
RAPID CTY ARPT SUNNY     60  55  83 N3        29.94R
PIERRE         MOSUNNY   66  58  75 S12       29.89F
CUSTER         MOSUNNY   58  50  75 W8        30.02S
ELLSWORTH AFB  SUNNY     60  56  85 N3        29.95R
PHILIP         MOSUNNY   64  58  80 W6        29.91S
PINE RIDGE     PTSUNNY   63  54  72 SW13      29.95F
SPEARFISH      FAIR      59  48  67 NW13      29.99R
WINNER         FAIR      69  57  65 S17       29.92F
$$

SDZ004>011-016>023-039-040-281500-
NORTHEAST SOUTH DAKOTA

CITY           SKY/WX    TMP DP  RH WIND       PRES   REMARKS
ABERDEEN       MOSUNNY   69  61  75 S14       29.91F
WATERTOWN      CLOUDY    63  59  87 S15       29.99R
BROOKINGS      CLOUDY    66  54  63 SW10      30.05R
SISSETON         N/A     69  57  65 SW12      29.92S
$$

SDZ017-020-022-023-036>040-048>070-281500-
SOUTHEAST SOUTH DAKOTA

CITY           SKY/WX    TMP DP  RH WIND       PRES   REMARKS
SIOUX FALLS    CLOUDY    68  54  60 S12       30.03R
HURON            N/A    N/A N/A N/A MISG      29.94F
CHAMBERLAIN    SUNNY     68  60  75 S14       29.93S
MITCHELL       MOSUNNY   71  58  63 SE16      29.97F
YANKTON        PTSUNNY   70  55  60 S12       29.99F
$$

ABBREVIATIONS USED IN REMARKS
   TC - TEMPERATURE IN CELSIUS
  WCI - WIND CHILL INDEX
   HX - HEAT INDEX
  VSB - VISIBILITY




USA.gov is the U.S. government's official web portal to all federal, state and local government web resources and services.